Location: Coopersdale
(40.3556°N, 78.9372°W)
Time: 22:03:00
(UTC+00:00)

Explorer 11/Cluster Stage 4 - Pass Details

Date: 27 January 2021
Orbit: 467 x 1257 km, 28.8° (Epoch: 25 February)

Event Time Altitude Azimuth Distance (km) Brightness Sun altitude
Rises 00:59:41 0° 227° (SW) 2,999 10.2 -29.0°
Reaches altitude 10° 01:02:24 10° 210° (SSW) 2,221 9.2 -29.5°
Enters shadow 01:04:26 18° 189° (S) 1,851 8.5 -29.9°
